sat.trackr.live / text

‹ back to catalog

TRANSPORTER-15 OBJECT CX

NORAD 66759 · 2025-276CX

PAYLOAD ACTIVE UNKNOWN

§ Identity

Operator
Country
TBD
Launch date
2025-11-28
Launch site
AFWTR
Launch vehicle
Mass (kg)
RCS (m²)

External: N2YO · Heavens-Above · Gunter

§ Orbital elements

Epoch: 2026-05-25T04:23:05.663616Z

Period
94.70 min
Inclination
97.4172°
Eccentricity
0.0002246
Mean motion
15.20625702 rev/d
Perigee alt
502.4 km
Apogee alt
505.5 km
Semi-major
6,882.1 km
B*
2.6583e-4
RAAN
219.2924°
Arg perigee
65.1609°
Mean anomaly
294.9860°
Rev number
2,694

§ Raw data

TRANSPORTER-15 OBJECT CX1 66759U 25276CX  26145.18270444  .00005763  00000+0  26583-3 0  99902 66759  97.4172 219.2924 0002246  65.1609 294.9860 15.20625702 26944

JSON: /api/v1/satellites/66759 · /tle

For live sub-satellite position, see the globe view (requires WebGL).

§ Visibility from observer

Set your observer location to see the next 7 days of passes ≥ 10°. The values pass through the URL so the page stays shareable.

No JS? Fill the form by hand. The geolocation button needs JavaScript.